Simultaneous Nadir Overpasses (SNOs) Predictions

Prediction of SNOs near equator between AQUA and NPP Satellite Orbit:

Table of predicted SNOs near equator for the next 14.0 days since TLE Epoch: 2/26/2016
Index Date (AQUA) Time (AQUA) AQUA Lat,Lon Date (NPP) Time (NPP) NPP Lat,Lon Distance(km) Time Diff (sec)
1 02/28/2016 15:38:40 13.07, -32.64 02/28/2016 15:28:57 13.07, -32.64 0.18 583
2 02/28/2016 16:24:40 -0.86, 137.65 02/28/2016 16:16:09 -0.83, 137.46 21.28 511
3 02/28/2016 17:12:54 -3.73, -53.75 02/28/2016 17:05:38 -3.85, -54.20 51.43 436
4 02/28/2016 18:01:02 8.21, 114.87 02/28/2016 17:55:01 8.39, 114.16 80.80 361
5 03/02/2016 07:52:41 4.07, 85.18 03/02/2016 07:43:16 4.07, 85.18 0.94 565
6 03/02/2016 08:40:49 0.41,-106.20 03/02/2016 08:32:39 0.48,-106.47 30.89 490
7 03/02/2016 09:29:03 -5.06, 62.41 03/02/2016 09:22:09 -5.16, 61.87 60.86 414
8 03/02/2016 10:17:11 9.54,-128.97 03/02/2016 10:11:32 9.70,-129.77 89.89 339
9 03/04/2016 23:26:51 -29.99, 27.47 03/04/2016 23:16:51 -30.51, 27.25 61.44 600
10 03/05/2016 00:08:50 2.77,-158.66 03/04/2016 23:59:47 2.77,-158.75 10.56 543
11 03/05/2016 00:56:58 1.71, 9.95 03/05/2016 00:49:10 1.78, 9.59 40.56 468
12 03/05/2016 01:45:13 -6.30, 178.55 03/05/2016 01:38:40 -6.46, 177.93 70.36 393
13 03/05/2016 02:33:21 10.78, -12.82 03/05/2016 02:28:03 11.00, -13.70 99.06 318
14 03/07/2016 15:39:15 -15.18, 146.90 03/07/2016 15:29:22 -15.18, 146.90 0.82 593
15 03/07/2016 16:24:58 1.42, -42.49 03/07/2016 16:16:17 1.41, -42.68 20.39
